Vertical_Velocity
0 10 -6 -13 -5 -5 2 3 0 -4 -4 9 -3 -1 -5 -3 3 0 -3 -3 -4 -4 -12 -2 -2 7 0 -1 -3 -0 -2 1 -1 -3 -2 -1 -5 -1 -1 -0 -3 3 -0 8
21 -4 -11 0 3 3 1 2 -8 -5 -0 15 -1 -8 -4 -0 -4 -2 -1 -3 -2 1 1 -2 -0 6 6 7 2 -1 3 -2 0 1 2 -1 -1 -0 -2 1 -4 8 1 -2
-4 -14 3 3 2 6 -0 -0 -2 -1 -2 -0 8 -7 -1 -8 3 3 2 1 -3 -1 -2 -5 -1 -1 5 -0 1 1 6 1 4 4 1 3 1 1 -1 1 -5 -5 -1 0
-4 -3 -1 3 -1 1 6 -4 1 1 7 -1 1 -3 -1 -2 -2 1 0 -1 -2 -1 -4 -3 -1 -3 0 3 6 2 5 3 2 -1 -0 -1 0 -2 -1 1 1 -3 1 1
-16 2 2 4 -17 2 -21 1 -1 0 2 10 -2 9 -3 1 2 2 -0 -2 -1 -1 2 0 -4 -1 -0 4 2 2 -0 4 0 1 -0 -0 -1 1 2 -1 -1 0 1 6
-4 0 1 -15 -2 -1 -3 6 4 2 2 8 -10 5 0 2 2 -1 -1 -2 -2 -1 -2 -2 1 1 -3 4 2 0 -2 3 4 2 -0 -1 -4 -3 5 -2 -1 -0 1 -3
5 3 3 -4 2 5 8 8 4 10 8 -6 1 5 -5 1 0 1 1 -1 -1 -2 -0 -2 0 0 5 3 4 4 0 -2 2 -0 0 -2 -4 -2 4 -0 -1 0 -1 -4
-4 16 -0 4 -9 -12 -6 -7 -2 -4 -1 -1 2 -2 11 -0 -0 -0 1 2 0 -2 -2 -1 -1 -2 1 1 5 1 2 1 4 5 1 0 -3 0 -0 2 -3 -2 1 -0
2 8 5 1 -1 -11 3 7 -1 1 1 4 -3 5 15 1 -1 -2 -1 -1 -1 -2 0 0 -7 2 2 3 4 4 6 5 -0 6 5 -1 -3 -1 -7 6 4 -1 -4 2
-3 0 -3 3 3 3 -3 -7 8 2 1 1 4 0 6 0 -1 -2 -5 -1 -3 -2 -3 3 -8 6 1 3 10 2 4 5 1 1 4 3 -4 -2 -9 8 -3 -1 -1 -2
-2 -6 9 7 3 -8 8 5 2 -1 4 2 1 8 5 3 3 2 0 0 1 0 -1 2 -8 3 4 4 13 3 2 4 1 0 2 3 -4 0 -4 5 -0 -2 -1 -1
0 -3 -0 -4 -1 -1 -1 -1 -2 2 3 2 2 5 1 2 2 2 1 0 -0 3 4 2 -7 11 10 10 -2 -1 3 3 6 0 0 3 -0 -0 -0 -2 5 -1 -2 -1
3 5 2 15 15 8 -0 2 -1 -0 -0 -1 2 8 -0 -2 -3 1 -1 -1 0 4 -4 -3 -9 -2 8 9 12 8 4 3 13 1 0 4 4 5 -0 1 4 0 -0 -2
1 -1 1 -4 -7 -6 1 1 0 -1 1 2 -3 -4 -8 -3 0 -3 1 1 1 2 1 -5 -6 -3 13 13 5 -2 11 6 2 -3 2 -0 1 4 1 -0 1 0 -1 3
-2 -2 -6 3 1 -2 -2 -1 0 1 -1 3 1 3 2 5 4 4 5 2 -1 -1 -4 -12 -6 -1 8 9 9 10 -3 3 17 11 7 10 6 7 6 2 5 -1 -1 -2
-3 2 -1 3 1 -1 -0 0 0 0 -0 0 0 -1 4 3 -0 -6 2 2 0 -1 1 -7 1 -7 6 1 14 28 -7 6 9 2 -0 1 7 7 3 1 1 3 2 2
-0 0 -0 3 -0 -0 3 5 0 1 -0 4 2 7 0 1 1 3 0 1 2 0 1 -0 7 -19 8 12 12 5 12 -5 8 9 7 3 1 5 3 2 3 4 5 3
0 -1 0 1 2 2 14 0 1 -1 2 -1 -3 -1 3 1 4 2 3 1 1 2 -1 2 3 1 6 -3 -4 -16 23 0 -1 5 1 9 6 -1 5 3 1 3 2 4
0 0 -0 1 0 8 3 2 2 4 6 4 3 -2 2 1 -2 2 -0 3 0 1 1 -3 2 2 2 -3 5 23 -5 3 7 -6 12 -4 19 -25 12 5 -2 -0 0 2
-1 0 1 1 -1 0 8 1 1 3 8 3 3 1 -0 3 2 6 2 -2 6 -1 -2 0 3 2 11 -4 0 -0 1 -4 -9 -1 8 -6 5 8 -8 22 -9 2 2 -2
-1 -1 1 0 0 6 4 2 0 11 19 2 1 3 -1 -1 5 4 3 -0 -3 2 -1 -4 -0 -0 0 -6 0 -6 -0 2 3 -7 3 3 -5 -7 -7 -8 -4 5 2 1
2 3 1 0 -0 5 1 -6 1 8 2 1 0 2 -1 1 4 4 2 -1 -1 4 -1 -2 -3 -1 2 -1 -0 1 -2 -5 -0 -4 -3 -8 2 -10 3 -6 1 6 1 1
2 5 6 5 6 4 4 2 4 2 3 3 -2 2 0 0 1 1 -1 0 3 2 0 -3 -0 -3 -4 1 2 3 -1 -1 2 4 -2 -4 -3 0 -3 0 8 -6 2 3
1 -1 1 5 5 3 2 2 2 -0 0 -0 1 1 1 -1 -1 -1 2 1 1 1 -1 0 2 1 3 -0 -0 1 0 -1 2 -3 1 -3 3 2 3 -12 -5 9 -1 -1
5 1 2 3 3 3 -0 0 2 -0 0 -1 0 1 0 1 0 2 1 -0 1 -3 -1 -1 -2 1 0 2 1 0 -0 1 -2 -0 0 2 -1 1 -1 -3 -6 -1 1 -2
1 3 3 4 2 0 3 1 0 -1 -1 -0 0 -1 -1 1 -2 0 1 1 1 1 -1 0 2 2 -1 -1 -1 -1 -0 -0 1 3 3 1 -2 -7 -3 -2 -3 -2 0 1
Height
1432 1433 1422 1419 1423 1425 1424 1426 1428 1420 1423 1428 1423 1421 1420 1422 1426 1429 1429 1429 1429 1429 1430 1431 1433 1435 1434 1436 1438 1439 1442 1442 1448 1451 1455 1458 1461 1464 1467 1468 1471 1472 1473 1473
1426 1411 1416 1421 1424 1433 1441 1441 1429 1421 1423 1427 1423 1419 1415 1417 1420 1422 1421 1421 1421 1422 1424 1424 1426 1427 1428 1429 1430 1432 1434 1434 1440 1445 1450 1453 1457 1459 1462 1464 1466 1467 1468 1468
1406 1405 1414 1420 1426 1434 1434 1428 1426 1425 1420 1421 1422 1417 1410 1406 1408 1409 1413 1418 1420 1421 1421 1420 1420 1421 1422 1421 1422 1425 1428 1426 1433 1440 1445 1449 1452 1455 1457 1458 1461 1462 1463 1463
1408 1406 1412 1421 1421 1425 1422 1419 1423 1425 1428 1425 1419 1413 1400 1403 1403 1406 1416 1419 1421 1419 1417 1414 1412 1413 1414 1414 1416 1418 1421 1420 1427 1433 1439 1443 1446 1449 1451 1453 1458 1459 1461 1463
1405 1408 1413 1416 1414 1415 1415 1417 1425 1423 1422 1421 1417 1422 1397 1399 1406 1410 1414 1417 1416 1416 1412 1408 1406 1405 1405 1409 1409 1412 1413 1415 1420 1427 1434 1439 1445 1448 1448 1450 1454 1457 1459 1463
1398 1403 1408 1408 1413 1412 1413 1420 1422 1423 1421 1425 1408 1411 1398 1396 1409 1412 1414 1415 1415 1413 1408 1404 1401 1399 1398 1400 1402 1403 1404 1410 1415 1422 1428 1434 1439 1443 1446 1445 1451 1454 1457 1460
1398 1400 1404 1408 1415 1414 1414 1416 1424 1427 1426 1415 1406 1411 1397 1406 1411 1412 1412 1412 1412 1410 1404 1399 1396 1394 1393 1394 1394 1395 1396 1403 1410 1416 1422 1429 1434 1438 1444 1442 1447 1450 1453 1457
1395 1408 1400 1404 1404 1405 1409 1408 1404 1415 1408 1399 1407 1406 1394 1403 1407 1409 1409 1409 1408 1407 1401 1395 1391 1389 1388 1389 1390 1390 1392 1398 1405 1411 1417 1424 1430 1434 1441 1440 1444 1448 1451 1454
1391 1395 1396 1399 1402 1403 1410 1410 1405 1410 1416 1414 1393 1397 1399 1404 1401 1403 1404 1404 1405 1403 1398 1391 1384 1382 1380 1382 1385 1385 1390 1397 1402 1409 1413 1419 1426 1431 1437 1439 1442 1445 1449 1452
1385 1398 1397 1402 1401 1403 1398 1401 1412 1411 1418 1409 1393 1395 1391 1399 1402 1402 1399 1400 1403 1401 1395 1387 1380 1377 1374 1377 1382 1384 1388 1393 1398 1405 1411 1415 1422 1427 1434 1436 1438 1442 1446 1450
1384 1384 1401 1402 1396 1397 1404 1403 1406 1403 1406 1402 1403 1395 1401 1404 1406 1405 1405 1404 1402 1398 1394 1386 1380 1375 1375 1377 1379 1382 1387 1391 1395 1402 1409 1413 1418 1424 1429 1434 1435 1439 1443 1447
1388 1385 1396 1394 1399 1393 1392 1395 1398 1401 1415 1412 1412 1401 1403 1406 1406 1407 1409 1410 1407 1402 1396 1388 1383 1378 1377 1379 1379 1383 1387 1390 1394 1400 1408 1412 1415 1420 1424 1431 1433 1436 1440 1444
1388 1389 1397 1406 1402 1398 1398 1401 1401 1407 1410 1416 1413 1397 1403 1402 1404 1406 1412 1412 1409 1402 1399 1391 1388 1384 1381 1378 1381 1384 1386 1391 1396 1400 1408 1412 1416 1418 1422 1428 1432 1435 1439 1442
1391 1389 1386 1384 1387 1392 1403 1403 1403 1405 1410 1408 1406 1403 1399 1402 1405 1405 1413 1412 1411 1405 1403 1399 1396 1394 1387 1382 1382 1382 1385 1392 1396 1400 1408 1413 1416 1418 1421 1427 1431 1433 1437 1441
1397 1396 1394 1395 1397 1397 1401 1404 1408 1409 1410 1415 1407 1408 1403 1410 1411 1406 1416 1416 1412 1411 1408 1406 1407 1400 1394 1385 1384 1386 1385 1392 1394 1399 1406 1412 1416 1418 1421 1426 1430 1432 1435 1439
1412 1407 1401 1405 1404 1404 1407 1408 1410 1411 1412 1411 1409 1405 1407 1417 1419 1423 1424 1421 1419 1418 1413 1412 1412 1407 1401 1395 1389 1385 1386 1392 1396 1398 1403 1406 1410 1414 1418 1423 1426 1429 1432 1435
1411 1405 1403 1406 1408 1409 1412 1415 1412 1411 1411 1412 1410 1409 1407 1419 1426 1427 1428 1426 1425 1424 1423 1415 1415 1413 1413 1404 1396 1389 1389 1395 1398 1400 1402 1405 1406 1408 1413 1419 1422 1425 1428 1431
1416 1414 1411 1412 1413 1413 1417 1415 1416 1414 1418 1419 1416 1413 1416 1426 1431 1431 1430 1428 1429 1428 1427 1422 1417 1416 1411 1405 1402 1402 1400 1400 1402 1402 1402 1405 1406 1406 1410 1414 1417 1421 1424 1426
1421 1417 1418 1416 1412 1416 1419 1425 1425 1423 1422 1430 1428 1422 1424 1428 1430 1435 1434 1433 1432 1430 1429 1430 1425 1418 1414 1410 1419 1410 1407 1408 1407 1404 1404 1407 1405 1409 1413 1413 1415 1419 1421 1424
1425 1422 1418 1419 1417 1419 1429 1429 1427 1424 1417 1438 1436 1429 1424 1427 1421 1439 1441 1438 1435 1433 1432 1430 1428 1426 1421 1417 1415 1414 1412 1412 1414 1414 1409 1412 1414 1411 1413 1415 1414 1419 1420 1421
1427 1430 1427 1427 1423 1424 1440 1431 1425 1419 1438 1442 1440 1439 1434 1436 1440 1442 1442 1441 1439 1437 1434 1432 1429 1425 1422 1422 1425 1422 1420 1417 1417 1419 1414 1414 1416 1415 1421 1425 1421 1421 1420 1420
1429 1428 1428 1428 1428 1429 1448 1434 1435 1451 1447 1446 1445 1445 1444 1443 1443 1442 1441 1439 1440 1441 1438 1435 1434 1431 1430 1429 1428 1425 1425 1426 1424 1417 1421 1421 1422 1420 1423 1424 1426 1421 1421 1422
1440 1448 1445 1448 1451 1458 1457 1456 1455 1452 1451 1450 1450 1450 1449 1448 1446 1445 1443 1442 1440 1440 1439 1440 1437 1437 1434 1432 1430 1428 1428 1427 1426 1425 1423 1421 1425 1425 1423 1425 1424 1422 1423 1423
1450 1452 1448 1451 1460 1460 1460 1460 1458 1456 1455 1454 1454 1453 1453 1451 1450 1448 1446 1444 1443 1441 1440 1442 1441 1441 1438 1436 1434 1433 1432 1431 1429 1428 1428 1428 1428 1424 1423 1425 1429 1424 1424 1425
1453 1452 1454 1454 1460 1461 1462 1462 1462 1460 1460 1458 1457 1456 1455 1455 1453 1452 1450 1448 1447 1446 1447 1446 1445 1443 1440 1438 1436 1435 1434 1434 1433 1433 1432 1431 1430 1431 1429 1429 1430 1433 1429 1430
1459 1460 1454 1455 1463 1462 1465 1465 1464 1462 1461 1461 1460 1459 1458 1457 1455 1455 1453 1451 1450 1449 1450 1449 1448 1445 1443 1442 1440 1438 1436 1436 1438 1438 1436 1435 1435 1439 1439 1437 1436 1438 1438 1435